Cosmos 1898 Rocket - Orbit

View from above orbital plane
View from above orbital plane
View from above satellite
View from above satellite

Ground track
Ground track

The orbit data is extracted from the following two-line orbital elements,

1 18586U 87098B   13140.15492219  .00000120  00000-0  50197-4 0  7449
2 18586 074.0058 156.2319 0021545 208.2315 214.8683 14.36220081333546
Epoch (UTC): 20 May 2013 03:43:05
Eccentricity: 0.0021545
inclination: 74.0058°
perigee height: 755 km
apogee height: 786 km
right ascension of ascending node: 156.2319°
argument of perigee: 208.2315°
revolutions per day: 14.36220081
mean anomaly at epoch: 214.8683°
orbit number at epoch: 33354

The dashed part of the orbit path shows where the satellite is in the earth's shadow,  

Developed and maintained by Chris Peat, Heavens-Above GmbH. Please read the updated FAQ before sending e-mail. Imprint. DLR